Year,Month,Day,Hour,Minute,Value (Times are PST for temperature in C)
2010,02,17,00,00,1.40
2010,02,17,00,01,1.40
2010,02,17,00,02,1.40
2010,02,17,00,03,1.40
2010,02,17,00,04,1.40
2010,02,17,00,05,1.40
2010,02,17,00,06,1.40
2010,02,17,00,07,1.30
2010,02,17,00,08,1.30
2010,02,17,00,09,1.40
2010,02,17,00,10,1.30
2010,02,17,00,11,1.30
2010,02,17,00,12,1.30
2010,02,17,00,13,1.30
2010,02,17,00,14,1.30
2010,02,17,00,15,1.30
2010,02,17,00,16,1.30
2010,02,17,00,17,1.30
2010,02,17,00,18,1.30
2010,02,17,00,19,1.30
2010,02,17,00,20,1.30
2010,02,17,00,21,1.30
2010,02,17,00,22,1.30
2010,02,17,00,23,1.30
2010,02,17,00,24,1.30
2010,02,17,00,25,1.30
2010,02,17,00,26,1.30
2010,02,17,00,27,1.30
2010,02,17,00,28,1.30
2010,02,17,00,29,1.30
2010,02,17,00,30,1.30
2010,02,17,00,31,1.30
2010,02,17,00,32,1.30
2010,02,17,00,33,1.30
2010,02,17,00,34,1.20
2010,02,17,00,35,1.20
2010,02,17,00,36,1.20
2010,02,17,00,37,1.10
2010,02,17,00,38,1.10
2010,02,17,00,39,1.10
2010,02,17,00,40,1.00
2010,02,17,00,41,1.00
2010,02,17,00,42,1.00
2010,02,17,00,43,0.90
2010,02,17,00,44,0.90
2010,02,17,00,45,0.90
2010,02,17,00,46,0.90
2010,02,17,00,47,0.80
2010,02,17,00,48,0.80
2010,02,17,00,49,0.80
2010,02,17,00,50,0.80
2010,02,17,00,51,0.80
2010,02,17,00,52,0.80
2010,02,17,00,53,0.80
2010,02,17,00,54,0.80
2010,02,17,00,55,0.80
2010,02,17,00,56,0.80
2010,02,17,00,57,0.80
2010,02,17,00,58,0.80
2010,02,17,00,59,0.80
2010,02,17,01,00,0.80
2010,02,17,01,01,0.80
2010,02,17,01,02,0.80
2010,02,17,01,03,0.70
2010,02,17,01,04,0.70
2010,02,17,01,05,0.70
2010,02,17,01,06,0.70
2010,02,17,01,07,0.70
2010,02,17,01,08,0.70
2010,02,17,01,09,0.60
2010,02,17,01,10,0.60
2010,02,17,01,11,0.60
2010,02,17,01,12,0.60
2010,02,17,01,13,0.60
2010,02,17,01,14,0.60
2010,02,17,01,15,0.60
2010,02,17,01,16,0.70
2010,02,17,01,17,0.70
2010,02,17,01,18,0.70
2010,02,17,01,19,0.70
2010,02,17,01,20,0.70
2010,02,17,01,21,0.70
2010,02,17,01,22,0.70
2010,02,17,01,23,0.70
2010,02,17,01,24,0.70
2010,02,17,01,25,0.60
2010,02,17,01,26,0.60
2010,02,17,01,27,0.60
2010,02,17,01,28,0.60
2010,02,17,01,29,0.50
2010,02,17,01,30,0.50
2010,02,17,01,31,0.50
2010,02,17,01,32,0.50
2010,02,17,01,33,0.50
2010,02,17,01,34,0.50
2010,02,17,01,35,0.50
2010,02,17,01,36,0.40
2010,02,17,01,37,0.40
2010,02,17,01,38,0.40
2010,02,17,01,39,0.40
2010,02,17,01,40,0.40
2010,02,17,01,41,0.40
2010,02,17,01,42,0.40
2010,02,17,01,43,0.30
2010,02,17,01,44,0.30
2010,02,17,01,45,0.30
2010,02,17,01,46,0.30
2010,02,17,01,47,0.30
2010,02,17,01,48,0.30
2010,02,17,01,49,0.30
2010,02,17,01,50,0.20
2010,02,17,01,51,0.20
2010,02,17,01,52,0.20
2010,02,17,01,53,0.20
2010,02,17,01,54,0.20
2010,02,17,01,55,0.20
2010,02,17,01,56,0.20
2010,02,17,01,57,0.20
2010,02,17,01,58,0.30
2010,02,17,01,59,0.30
2010,02,17,02,00,0.30
2010,02,17,02,01,0.30
2010,02,17,02,02,0.30
2010,02,17,02,03,0.30
2010,02,17,02,04,0.30
2010,02,17,02,05,0.30
2010,02,17,02,06,0.30
2010,02,17,02,07,0.30
2010,02,17,02,08,0.30
2010,02,17,02,09,0.30
2010,02,17,02,10,0.30
2010,02,17,02,11,0.30
2010,02,17,02,12,0.30
2010,02,17,02,13,0.30
2010,02,17,02,14,0.30
2010,02,17,02,15,0.30
2010,02,17,02,16,0.30
2010,02,17,02,17,0.30
2010,02,17,02,18,0.30
2010,02,17,02,19,0.20
2010,02,17,02,20,0.20
2010,02,17,02,21,0.20
2010,02,17,02,22,0.20
2010,02,17,02,23,0.20
2010,02,17,02,24,0.20
2010,02,17,02,25,0.20
2010,02,17,02,26,0.20
2010,02,17,02,27,0.20
2010,02,17,02,28,0.20
2010,02,17,02,29,0.10
2010,02,17,02,30,0.10
2010,02,17,02,31,0.10
2010,02,17,02,32,0.10
2010,02,17,02,33,0.10
2010,02,17,02,34,0.20
2010,02,17,02,35,0.20
2010,02,17,02,36,0.20
2010,02,17,02,37,0.20
2010,02,17,02,38,0.20
2010,02,17,02,39,0.20
2010,02,17,02,40,0.20
2010,02,17,02,41,0.20
2010,02,17,02,42,0.20
2010,02,17,02,43,0.20
2010,02,17,02,44,0.20
2010,02,17,02,45,0.20
2010,02,17,02,46,0.20
2010,02,17,02,47,0.20
2010,02,17,02,48,0.20
2010,02,17,02,49,0.10
2010,02,17,02,50,0.10
2010,02,17,02,51,0.10
2010,02,17,02,52,0.10
2010,02,17,02,53,0.20
2010,02,17,02,54,0.20
2010,02,17,02,55,0.20
2010,02,17,02,56,0.20
2010,02,17,02,57,0.20
2010,02,17,02,58,0.20
2010,02,17,02,59,0.20
2010,02,17,03,00,0.20
2010,02,17,03,01,0.20
2010,02,17,03,02,0.20
2010,02,17,03,03,0.20
2010,02,17,03,04,0.20
2010,02,17,03,05,0.20
2010,02,17,03,06,0.20
2010,02,17,03,07,0.20
2010,02,17,03,08,0.10
2010,02,17,03,09,0.10
2010,02,17,03,10,0.10
2010,02,17,03,11,0.10
2010,02,17,03,12,0.10
2010,02,17,03,13,0.10
2010,02,17,03,14,0.10
2010,02,17,03,15,0.10
2010,02,17,03,16,0.10
2010,02,17,03,17,0.10
2010,02,17,03,18,0.10
2010,02,17,03,19,0.10
2010,02,17,03,20,0.10
2010,02,17,03,21,0.20
2010,02,17,03,22,0.20
2010,02,17,03,23,0.20
2010,02,17,03,24,0.20
2010,02,17,03,25,0.20
2010,02,17,03,26,0.20
2010,02,17,03,27,0.20
2010,02,17,03,28,0.20
2010,02,17,03,29,0.20
2010,02,17,03,30,0.20
2010,02,17,03,31,0.20
2010,02,17,03,32,0.20
2010,02,17,03,33,0.20
2010,02,17,03,34,0.20
2010,02,17,03,35,0.20
2010,02,17,03,36,0.20
2010,02,17,03,37,0.30
2010,02,17,03,38,0.30
2010,02,17,03,39,0.30
2010,02,17,03,40,0.30
2010,02,17,03,41,0.30
2010,02,17,03,42,0.30
2010,02,17,03,43,0.30
2010,02,17,03,44,0.30
2010,02,17,03,45,0.30
2010,02,17,03,46,0.30
2010,02,17,03,47,0.30
2010,02,17,03,48,0.30
2010,02,17,03,49,0.30
2010,02,17,03,50,0.30
2010,02,17,03,51,0.30
2010,02,17,03,52,0.30
2010,02,17,03,53,0.30
2010,02,17,03,54,0.30
2010,02,17,03,55,0.30
2010,02,17,03,56,0.20
2010,02,17,03,57,0.20
2010,02,17,03,58,0.20
2010,02,17,03,59,0.20
2010,02,17,04,00,0.20
2010,02,17,04,01,0.20
2010,02,17,04,02,0.20
2010,02,17,04,03,0.20
2010,02,17,04,04,0.10
2010,02,17,04,05,0.10
2010,02,17,04,06,0.10
2010,02,17,04,07,0.10
2010,02,17,04,08,0.10
2010,02,17,04,09,0.10
2010,02,17,04,10,0.10
2010,02,17,04,11,0.10
2010,02,17,04,12,0.10
2010,02,17,04,13,0.10
2010,02,17,04,14,0.10
2010,02,17,04,15,0.10
2010,02,17,04,16,0.10
2010,02,17,04,17,0.10
2010,02,17,04,18,0.10
2010,02,17,04,19,0.20
2010,02,17,04,20,0.20
2010,02,17,04,21,0.20
2010,02,17,04,22,0.20
2010,02,17,04,23,0.30
2010,02,17,04,24,0.30
2010,02,17,04,25,0.40
2010,02,17,04,26,0.40
2010,02,17,04,27,0.50
2010,02,17,04,28,0.60
2010,02,17,04,29,0.70
2010,02,17,04,30,0.80
2010,02,17,04,31,0.80
2010,02,17,04,32,0.80
2010,02,17,04,33,0.90
2010,02,17,04,34,1.00
2010,02,17,04,35,1.00
2010,02,17,04,36,1.10
2010,02,17,04,37,1.10
2010,02,17,04,38,1.20
2010,02,17,04,39,1.20
2010,02,17,04,40,1.30
2010,02,17,04,41,1.30
2010,02,17,04,42,1.30
2010,02,17,04,43,1.30
2010,02,17,04,44,1.30
2010,02,17,04,45,1.40
2010,02,17,04,46,1.50
2010,02,17,04,47,1.50
2010,02,17,04,48,1.60
2010,02,17,04,49,1.60
2010,02,17,04,50,1.70
2010,02,17,04,51,1.70
2010,02,17,04,52,1.70
2010,02,17,04,53,1.70
2010,02,17,04,54,1.60
2010,02,17,04,55,1.60
2010,02,17,04,56,1.60
2010,02,17,04,57,1.50
2010,02,17,04,58,1.50
2010,02,17,04,59,1.50
2010,02,17,05,00,1.40
2010,02,17,05,01,1.50
2010,02,17,05,02,1.50
2010,02,17,05,03,1.50
2010,02,17,05,04,1.50
2010,02,17,05,05,1.60
2010,02,17,05,06,1.70
2010,02,17,05,07,1.70
2010,02,17,05,08,1.70
2010,02,17,05,09,1.70
2010,02,17,05,10,1.70
2010,02,17,05,11,1.70
2010,02,17,05,12,1.60
2010,02,17,05,13,1.60
2010,02,17,05,14,1.60
2010,02,17,05,15,1.60
2010,02,17,05,16,1.60
2010,02,17,05,17,1.60
2010,02,17,05,18,1.60
2010,02,17,05,19,1.50
2010,02,17,05,20,1.50
2010,02,17,05,21,1.50
2010,02,17,05,22,1.50
2010,02,17,05,23,1.40
2010,02,17,05,24,1.40
2010,02,17,05,25,1.40
2010,02,17,05,26,1.40
2010,02,17,05,27,1.40
2010,02,17,05,28,1.40
2010,02,17,05,29,1.30
2010,02,17,05,30,1.30
2010,02,17,05,31,1.30
2010,02,17,05,32,1.30
2010,02,17,05,33,1.30
2010,02,17,05,34,1.30
2010,02,17,05,35,1.30
2010,02,17,05,36,1.30
2010,02,17,05,37,1.30
2010,02,17,05,38,1.30
2010,02,17,05,39,1.40
2010,02,17,05,40,1.40
2010,02,17,05,41,1.40
2010,02,17,05,42,1.50
2010,02,17,05,43,1.50
2010,02,17,05,44,1.50
2010,02,17,05,45,1.60
2010,02,17,05,46,1.60
2010,02,17,05,47,1.60
2010,02,17,05,48,1.60
2010,02,17,05,49,1.60
2010,02,17,05,50,1.70
2010,02,17,05,51,1.70
2010,02,17,05,52,1.80
2010,02,17,05,53,1.80
2010,02,17,05,54,1.80
2010,02,17,05,55,1.90
2010,02,17,05,56,1.90
2010,02,17,05,57,1.90
2010,02,17,05,58,2.00
2010,02,17,05,59,2.10
2010,02,17,06,00,2.10
2010,02,17,06,01,2.10
2010,02,17,06,02,2.10
2010,02,17,06,03,2.10
2010,02,17,06,04,2.10
2010,02,17,06,05,2.00
2010,02,17,06,06,2.00
2010,02,17,06,07,2.10
2010,02,17,06,08,2.10
2010,02,17,06,09,2.10
2010,02,17,06,10,2.20
2010,02,17,06,11,2.20
2010,02,17,06,12,2.20
2010,02,17,06,13,2.20
2010,02,17,06,14,2.20
2010,02,17,06,15,2.20
2010,02,17,06,16,2.20
2010,02,17,06,17,2.20
2010,02,17,06,18,2.10
2010,02,17,06,19,2.10
2010,02,17,06,20,2.10
2010,02,17,06,21,2.10
2010,02,17,06,22,2.10
2010,02,17,06,23,2.20
2010,02,17,06,24,2.20
2010,02,17,06,25,2.20
2010,02,17,06,26,2.20
2010,02,17,06,27,2.20
2010,02,17,06,28,2.30
2010,02,17,06,29,2.30
2010,02,17,06,30,2.30
2010,02,17,06,31,2.30
2010,02,17,06,32,2.30
2010,02,17,06,33,2.30
2010,02,17,06,34,2.30
2010,02,17,06,35,2.30
2010,02,17,06,36,2.40
2010,02,17,06,37,2.40
2010,02,17,06,38,2.40
2010,02,17,06,39,2.50
2010,02,17,06,40,2.50
2010,02,17,06,41,2.60
2010,02,17,06,42,2.60
2010,02,17,06,43,2.60
2010,02,17,06,44,2.60
2010,02,17,06,45,2.60
2010,02,17,06,46,2.50
2010,02,17,06,47,2.50
2010,02,17,06,48,2.50
2010,02,17,06,49,2.50
2010,02,17,06,50,2.50
2010,02,17,06,51,2.60
2010,02,17,06,52,2.60
2010,02,17,06,53,2.70
2010,02,17,06,54,2.70
2010,02,17,06,55,2.70
2010,02,17,06,56,2.70
2010,02,17,06,57,2.70
2010,02,17,06,58,2.80
2010,02,17,06,59,2.80
2010,02,17,07,00,2.80
2010,02,17,07,01,2.80
2010,02,17,07,02,2.80
2010,02,17,07,03,2.80
2010,02,17,07,04,2.80
2010,02,17,07,05,2.80
2010,02,17,07,06,2.80
2010,02,17,07,07,2.80
2010,02,17,07,08,2.80
2010,02,17,07,09,2.90
2010,02,17,07,10,2.90
2010,02,17,07,11,3.00
2010,02,17,07,12,3.00
2010,02,17,07,13,3.10
2010,02,17,07,14,3.10
2010,02,17,07,15,3.10
2010,02,17,07,16,3.10
2010,02,17,07,17,3.00
2010,02,17,07,18,3.00
2010,02,17,07,19,3.00
2010,02,17,07,20,3.00
2010,02,17,07,21,2.90
2010,02,17,07,22,2.90
2010,02,17,07,23,2.90
2010,02,17,07,24,2.90
2010,02,17,07,25,2.90
2010,02,17,07,26,2.90
2010,02,17,07,27,3.00
2010,02,17,07,28,3.10
2010,02,17,07,29,3.10
2010,02,17,07,30,3.20
2010,02,17,07,31,3.20
2010,02,17,07,32,3.30
2010,02,17,07,33,3.30
2010,02,17,07,34,3.30
2010,02,17,07,35,3.30
2010,02,17,07,36,3.30
2010,02,17,07,37,3.30
2010,02,17,07,38,3.30
2010,02,17,07,39,3.30
2010,02,17,07,40,3.20
2010,02,17,07,41,3.20
2010,02,17,07,42,3.20
2010,02,17,07,43,3.10
2010,02,17,07,44,3.10
2010,02,17,07,45,3.10
2010,02,17,07,46,3.10
2010,02,17,07,47,3.10
2010,02,17,07,48,3.10
2010,02,17,07,49,3.10
2010,02,17,07,50,3.00
2010,02,17,07,51,3.00
2010,02,17,07,52,3.00
2010,02,17,07,53,3.00
2010,02,17,07,54,3.00
2010,02,17,07,55,3.00
2010,02,17,07,56,3.00
2010,02,17,07,57,3.00
2010,02,17,07,58,3.00
2010,02,17,07,59,3.00
2010,02,17,08,00,3.00
2010,02,17,08,01,3.00
2010,02,17,08,02,3.00
2010,02,17,08,03,3.10
2010,02,17,08,04,3.10
2010,02,17,08,05,3.10
2010,02,17,08,06,3.10
2010,02,17,08,07,3.10
2010,02,17,08,08,3.10
2010,02,17,08,09,3.20
2010,02,17,08,10,3.20
2010,02,17,08,11,3.30
2010,02,17,08,12,3.30
2010,02,17,08,13,3.30
2010,02,17,08,14,3.30
2010,02,17,08,15,3.40
2010,02,17,08,16,3.40
2010,02,17,08,17,3.40
2010,02,17,08,18,3.50
2010,02,17,08,19,3.50
2010,02,17,08,20,3.60
2010,02,17,08,21,3.60
2010,02,17,08,22,3.70
2010,02,17,08,23,3.70
2010,02,17,08,24,3.70
2010,02,17,08,25,3.80
2010,02,17,08,26,3.80
2010,02,17,08,27,3.80
2010,02,17,08,28,3.90
2010,02,17,08,29,4.00
2010,02,17,08,30,4.10
2010,02,17,08,31,4.10
2010,02,17,08,32,4.20
2010,02,17,08,33,4.30
2010,02,17,08,34,4.40
2010,02,17,08,35,4.50
2010,02,17,08,36,4.50
2010,02,17,08,37,4.60
2010,02,17,08,38,4.70
2010,02,17,08,39,4.70
2010,02,17,08,40,4.80
2010,02,17,08,41,4.90
2010,02,17,08,42,4.90
2010,02,17,08,43,5.00
2010,02,17,08,44,5.10
2010,02,17,08,45,5.10
2010,02,17,08,46,5.20
2010,02,17,08,47,5.20
2010,02,17,08,48,5.30
2010,02,17,08,49,5.30
2010,02,17,08,50,5.40
2010,02,17,08,51,5.40
2010,02,17,08,52,5.50
2010,02,17,08,53,5.50
2010,02,17,08,54,5.60
2010,02,17,08,55,5.60
2010,02,17,08,56,5.70
2010,02,17,08,57,5.70
2010,02,17,08,58,5.80
2010,02,17,08,59,5.80
2010,02,17,09,00,5.80
2010,02,17,09,01,5.90
2010,02,17,09,02,5.90
2010,02,17,09,03,5.90
2010,02,17,09,04,5.90
2010,02,17,09,05,5.90
2010,02,17,09,06,6.00
2010,02,17,09,07,6.00
2010,02,17,09,08,6.00
2010,02,17,09,09,6.10
2010,02,17,09,10,6.10
2010,02,17,09,11,6.10
2010,02,17,09,12,6.20
2010,02,17,09,13,6.20
2010,02,17,09,14,6.20
2010,02,17,09,15,6.30
2010,02,17,09,16,6.30
2010,02,17,09,17,6.30
2010,02,17,09,18,6.40
2010,02,17,09,19,6.40
2010,02,17,09,20,6.40
2010,02,17,09,21,6.50
2010,02,17,09,22,6.50
2010,02,17,09,23,6.60
2010,02,17,09,24,6.60
2010,02,17,09,25,6.70
2010,02,17,09,26,6.70
2010,02,17,09,27,6.70
2010,02,17,09,28,6.80
2010,02,17,09,29,6.80
2010,02,17,09,30,6.80
2010,02,17,09,31,6.80
2010,02,17,09,32,6.80
2010,02,17,09,33,6.90
2010,02,17,09,34,6.90
2010,02,17,09,35,6.90
2010,02,17,09,36,6.90
2010,02,17,09,37,7.00
2010,02,17,09,38,7.00
2010,02,17,09,39,7.10
2010,02,17,09,40,7.10
2010,02,17,09,41,7.10
2010,02,17,09,42,7.10
2010,02,17,09,43,7.10
2010,02,17,09,44,7.20
2010,02,17,09,45,7.20
2010,02,17,09,46,7.20
2010,02,17,09,47,7.20
2010,02,17,09,48,7.20
2010,02,17,09,49,7.20
2010,02,17,09,50,7.20
2010,02,17,09,51,7.20
2010,02,17,09,52,7.30
2010,02,17,09,53,7.30
2010,02,17,09,54,7.30
2010,02,17,09,55,7.30
2010,02,17,09,56,7.30
2010,02,17,09,57,7.40
2010,02,17,09,58,7.40
2010,02,17,09,59,7.40
2010,02,17,10,00,7.40
2010,02,17,10,01,7.40
2010,02,17,10,02,7.40
2010,02,17,10,03,7.40
2010,02,17,10,04,7.40
2010,02,17,10,05,7.50
2010,02,17,10,06,7.50
2010,02,17,10,07,7.50
2010,02,17,10,08,7.60
2010,02,17,10,09,7.60
2010,02,17,10,10,7.60
2010,02,17,10,11,7.70
2010,02,17,10,12,7.70
2010,02,17,10,13,7.70
2010,02,17,10,14,7.70
2010,02,17,10,15,7.70
2010,02,17,10,16,7.70
2010,02,17,10,17,7.70
2010,02,17,10,18,7.70
2010,02,17,10,19,7.70
2010,02,17,10,20,7.70
2010,02,17,10,21,7.70
2010,02,17,10,22,7.70
2010,02,17,10,23,7.70
2010,02,17,10,24,7.70
2010,02,17,10,25,7.70
2010,02,17,10,26,7.80
2010,02,17,10,27,7.80
2010,02,17,10,28,7.80
2010,02,17,10,29,7.90
2010,02,17,10,30,7.90
2010,02,17,10,31,8.00
2010,02,17,10,32,8.00
2010,02,17,10,33,8.10
2010,02,17,10,34,8.10
2010,02,17,10,35,8.20
2010,02,17,10,36,8.20
2010,02,17,10,37,8.20
2010,02,17,10,38,8.20
2010,02,17,10,39,8.20
2010,02,17,10,40,8.20
2010,02,17,10,41,8.20
2010,02,17,10,42,8.20
2010,02,17,10,43,8.20
2010,02,17,10,44,8.20
2010,02,17,10,45,8.20
2010,02,17,10,46,8.30
2010,02,17,10,47,8.30
2010,02,17,10,48,8.30
2010,02,17,10,49,8.30
2010,02,17,10,50,8.30
2010,02,17,10,51,8.30
2010,02,17,10,52,8.30
2010,02,17,10,53,8.30
2010,02,17,10,54,8.30
2010,02,17,10,55,8.30
2010,02,17,10,56,8.30
2010,02,17,10,57,8.30
2010,02,17,10,58,8.30
2010,02,17,10,59,8.30
2010,02,17,11,00,8.40
2010,02,17,11,01,8.40
2010,02,17,11,02,8.50
2010,02,17,11,03,8.60
2010,02,17,11,04,8.70
2010,02,17,11,05,8.80
2010,02,17,11,06,8.90
2010,02,17,11,07,9.00
2010,02,17,11,08,9.00
2010,02,17,11,09,9.10
2010,02,17,11,10,9.20
2010,02,17,11,11,9.20
2010,02,17,11,12,9.20
2010,02,17,11,13,9.20
2010,02,17,11,14,9.20
2010,02,17,11,15,9.20
2010,02,17,11,16,9.20
2010,02,17,11,17,9.20
2010,02,17,11,18,9.20
2010,02,17,11,19,9.30
2010,02,17,11,20,9.30
2010,02,17,11,21,9.30
2010,02,17,11,22,9.30
2010,02,17,11,23,9.20
2010,02,17,11,24,9.20
2010,02,17,11,25,9.20
2010,02,17,11,26,9.10
2010,02,17,11,27,9.10
2010,02,17,11,28,9.10
2010,02,17,11,29,9.10
2010,02,17,11,30,9.10
2010,02,17,11,31,9.00
2010,02,17,11,32,9.00
2010,02,17,11,33,9.00
2010,02,17,11,34,9.00
2010,02,17,11,35,9.00
2010,02,17,11,36,9.00
2010,02,17,11,37,9.00
2010,02,17,11,38,9.00
2010,02,17,11,39,9.00
2010,02,17,11,40,9.10
2010,02,17,11,41,9.10
2010,02,17,11,42,9.00
2010,02,17,11,43,9.00
2010,02,17,11,44,8.90
2010,02,17,11,45,8.90
2010,02,17,11,46,9.00
2010,02,17,11,47,9.10
2010,02,17,11,48,9.10
2010,02,17,11,49,9.10
2010,02,17,11,50,9.10
2010,02,17,11,51,9.10
2010,02,17,11,52,9.10
2010,02,17,11,53,9.10
2010,02,17,11,54,9.10
2010,02,17,11,55,9.10
2010,02,17,11,56,9.10
2010,02,17,11,57,9.10
2010,02,17,11,58,9.10
2010,02,17,11,59,9.10
2010,02,17,12,00,9.10
2010,02,17,12,01,9.10
2010,02,17,12,02,9.10
2010,02,17,12,03,9.10
2010,02,17,12,04,9.10
2010,02,17,12,05,9.10
2010,02,17,12,06,9.10
2010,02,17,12,07,9.10
2010,02,17,12,08,9.10
2010,02,17,12,09,9.10
2010,02,17,12,10,9.20
2010,02,17,12,11,9.20
2010,02,17,12,12,9.30
2010,02,17,12,13,9.30
2010,02,17,12,14,9.30
2010,02,17,12,15,9.40
2010,02,17,12,16,9.40
2010,02,17,12,17,9.40
2010,02,17,12,18,9.30
2010,02,17,12,19,9.30
2010,02,17,12,20,9.30
2010,02,17,12,21,9.30
2010,02,17,12,22,9.30
2010,02,17,12,23,9.30
2010,02,17,12,24,9.30
2010,02,17,12,25,9.40
2010,02,17,12,26,9.40
2010,02,17,12,27,9.40
2010,02,17,12,28,9.40
2010,02,17,12,29,9.50
2010,02,17,12,30,9.60
2010,02,17,12,31,9.60
2010,02,17,12,32,9.70
2010,02,17,12,33,9.80
2010,02,17,12,34,9.80
2010,02,17,12,35,9.90
2010,02,17,12,36,9.90
2010,02,17,12,37,9.90
2010,02,17,12,38,9.90
2010,02,17,12,39,9.90
2010,02,17,12,40,9.90
2010,02,17,12,41,9.90
2010,02,17,12,42,9.90
2010,02,17,12,43,10.00
2010,02,17,12,44,10.00
2010,02,17,12,45,10.00
2010,02,17,12,46,10.00
2010,02,17,12,47,10.00
2010,02,17,12,48,9.90
2010,02,17,12,49,9.90
2010,02,17,12,50,9.90
2010,02,17,12,51,9.90
2010,02,17,12,52,9.90
2010,02,17,12,53,9.90
2010,02,17,12,54,10.00
2010,02,17,12,55,10.00
2010,02,17,12,56,10.00
2010,02,17,12,57,10.00
2010,02,17,12,58,10.00
2010,02,17,12,59,10.00
2010,02,17,13,00,10.00
2010,02,17,13,01,10.00
2010,02,17,13,02,10.00
2010,02,17,13,03,10.10
2010,02,17,13,04,10.00
2010,02,17,13,05,10.00
2010,02,17,13,06,10.00
2010,02,17,13,07,10.00
2010,02,17,13,08,10.00
2010,02,17,13,09,10.00
2010,02,17,13,10,10.10
2010,02,17,13,11,10.10
2010,02,17,13,12,10.10
2010,02,17,13,13,10.10
2010,02,17,13,14,10.10
2010,02,17,13,15,10.10
2010,02,17,13,16,10.10
2010,02,17,13,17,10.10
2010,02,17,13,18,10.10
2010,02,17,13,19,10.20
2010,02,17,13,20,10.20
2010,02,17,13,21,10.20
2010,02,17,13,22,10.30
2010,02,17,13,23,10.30
2010,02,17,13,24,10.40
2010,02,17,13,25,10.40
2010,02,17,13,26,10.40
2010,02,17,13,27,10.40
2010,02,17,13,28,10.40
2010,02,17,13,29,10.40
2010,02,17,13,30,10.30
2010,02,17,13,31,10.30
2010,02,17,13,32,10.30
2010,02,17,13,33,10.30
2010,02,17,13,34,10.30
2010,02,17,13,35,10.30
2010,02,17,13,36,10.30
2010,02,17,13,37,10.30
2010,02,17,13,38,10.40
2010,02,17,13,39,10.40
2010,02,17,13,40,10.40
2010,02,17,13,41,10.40
2010,02,17,13,42,10.40
2010,02,17,13,43,10.50
2010,02,17,13,44,10.50
2010,02,17,13,45,10.50
2010,02,17,13,46,10.50
2010,02,17,13,47,10.60
2010,02,17,13,48,10.50
2010,02,17,13,49,10.50
2010,02,17,13,50,10.60
2010,02,17,13,51,10.60
2010,02,17,13,52,10.60
2010,02,17,13,53,10.70
2010,02,17,13,54,10.70
2010,02,17,13,55,10.70
2010,02,17,13,56,10.80
2010,02,17,13,57,10.80
2010,02,17,13,58,10.80
2010,02,17,13,59,10.90
2010,02,17,14,00,10.90
2010,02,17,14,01,11.00
2010,02,17,14,02,11.00
2010,02,17,14,03,11.10
2010,02,17,14,04,11.10
2010,02,17,14,05,11.00
2010,02,17,14,06,11.00
2010,02,17,14,07,11.00
2010,02,17,14,08,11.00
2010,02,17,14,09,11.00
2010,02,17,14,10,11.00
2010,02,17,14,11,11.00
2010,02,17,14,12,11.00
2010,02,17,14,13,11.00
2010,02,17,14,14,11.00
2010,02,17,14,15,10.90
2010,02,17,14,16,10.90
2010,02,17,14,17,10.90
2010,02,17,14,18,10.80
2010,02,17,14,19,10.80
2010,02,17,14,20,10.80
2010,02,17,14,21,10.70
2010,02,17,14,22,10.70
2010,02,17,14,23,10.70
2010,02,17,14,24,10.70
2010,02,17,14,25,10.70
2010,02,17,14,26,10.70
2010,02,17,14,27,10.70
2010,02,17,14,28,10.70
2010,02,17,14,29,10.70
2010,02,17,14,30,10.70
2010,02,17,14,31,10.70
2010,02,17,14,32,10.70
2010,02,17,14,33,10.70
2010,02,17,14,34,10.70
2010,02,17,14,35,10.80
2010,02,17,14,36,10.80
2010,02,17,14,37,10.80
2010,02,17,14,38,10.90
2010,02,17,14,39,10.90
2010,02,17,14,40,10.90
2010,02,17,14,41,10.80
2010,02,17,14,42,10.90
2010,02,17,14,43,10.90
2010,02,17,14,44,10.90
2010,02,17,14,45,10.80
2010,02,17,14,46,10.80
2010,02,17,14,47,10.80
2010,02,17,14,48,10.80
2010,02,17,14,49,10.80
2010,02,17,14,50,10.80
2010,02,17,14,51,10.90
2010,02,17,14,52,10.90
2010,02,17,14,53,10.90
2010,02,17,14,54,10.90
2010,02,17,14,55,10.90
2010,02,17,14,56,10.90
2010,02,17,14,57,10.80
2010,02,17,14,58,10.90
2010,02,17,14,59,10.90
2010,02,17,15,00,10.90
2010,02,17,15,01,10.90
2010,02,17,15,02,10.80
2010,02,17,15,03,10.80
2010,02,17,15,04,10.80
2010,02,17,15,05,10.80
2010,02,17,15,06,10.80
2010,02,17,15,07,10.80
2010,02,17,15,08,10.80
2010,02,17,15,09,10.80
2010,02,17,15,10,10.80
2010,02,17,15,11,10.80
2010,02,17,15,12,10.80
2010,02,17,15,13,10.80
2010,02,17,15,14,10.80
2010,02,17,15,15,10.80
2010,02,17,15,16,10.80
2010,02,17,15,17,10.80
2010,02,17,15,18,10.80
2010,02,17,15,19,10.80
2010,02,17,15,20,10.80
2010,02,17,15,21,10.80
2010,02,17,15,22,10.80
2010,02,17,15,23,10.80
2010,02,17,15,24,10.90
2010,02,17,15,25,10.90
2010,02,17,15,26,10.90
2010,02,17,15,27,10.80
2010,02,17,15,28,10.80
2010,02,17,15,29,10.80
2010,02,17,15,30,10.80
2010,02,17,15,31,10.80
2010,02,17,15,32,10.80
2010,02,17,15,33,10.70
2010,02,17,15,34,10.70
2010,02,17,15,35,10.70
2010,02,17,15,36,10.70
2010,02,17,15,37,10.70
2010,02,17,15,38,10.70
2010,02,17,15,39,10.70
2010,02,17,15,40,10.70
2010,02,17,15,41,10.70
2010,02,17,15,42,10.70
2010,02,17,15,43,10.70
2010,02,17,15,44,10.60
2010,02,17,15,45,10.60
2010,02,17,15,46,10.70
2010,02,17,15,47,10.70
2010,02,17,15,48,10.70
2010,02,17,15,49,10.70
2010,02,17,15,50,10.70
2010,02,17,15,51,10.70
2010,02,17,15,52,10.70
2010,02,17,15,53,10.70
2010,02,17,15,54,10.70
2010,02,17,15,55,10.60
2010,02,17,15,56,10.60
2010,02,17,15,57,10.60
2010,02,17,15,58,10.60
2010,02,17,15,59,10.60
2010,02,17,16,00,10.60
2010,02,17,16,01,10.60
2010,02,17,16,02,10.60
2010,02,17,16,03,10.60
2010,02,17,16,04,10.60
2010,02,17,16,05,10.60
2010,02,17,16,06,10.60
2010,02,17,16,07,10.60
2010,02,17,16,08,10.60
2010,02,17,16,09,10.60
2010,02,17,16,10,10.60
2010,02,17,16,11,10.60
2010,02,17,16,12,10.60
2010,02,17,16,13,10.60
2010,02,17,16,14,10.60
2010,02,17,16,15,10.60
2010,02,17,16,16,10.60
2010,02,17,16,17,10.60
2010,02,17,16,18,10.60
2010,02,17,16,19,10.60
2010,02,17,16,20,10.60
2010,02,17,16,21,10.60
2010,02,17,16,22,10.60
2010,02,17,16,23,10.60
2010,02,17,16,24,10.60
2010,02,17,16,25,10.60
2010,02,17,16,26,10.60
2010,02,17,16,27,10.60
2010,02,17,16,28,10.70
2010,02,17,16,29,10.60
2010,02,17,16,30,10.60
2010,02,17,16,31,10.60
2010,02,17,16,32,10.60
2010,02,17,16,33,10.60
2010,02,17,16,34,10.60
2010,02,17,16,35,10.60
2010,02,17,16,36,10.50
2010,02,17,16,37,10.50
2010,02,17,16,38,10.40
2010,02,17,16,39,10.40
2010,02,17,16,40,10.30
2010,02,17,16,41,10.30
2010,02,17,16,42,10.30
2010,02,17,16,43,10.30
2010,02,17,16,44,10.20
2010,02,17,16,45,10.20
2010,02,17,16,46,10.20
2010,02,17,16,47,10.10
2010,02,17,16,48,10.10
2010,02,17,16,49,10.10
2010,02,17,16,50,10.10
2010,02,17,16,51,10.00
2010,02,17,16,52,10.00
2010,02,17,16,53,10.00
2010,02,17,16,54,9.90
2010,02,17,16,55,9.90
2010,02,17,16,56,9.90
2010,02,17,16,57,9.80
2010,02,17,16,58,9.80
2010,02,17,16,59,9.80
2010,02,17,17,00,9.80
2010,02,17,17,01,9.80
2010,02,17,17,02,9.70
2010,02,17,17,03,9.70
2010,02,17,17,04,9.70
2010,02,17,17,05,9.70
2010,02,17,17,06,9.60
2010,02,17,17,07,9.60
2010,02,17,17,08,9.60
2010,02,17,17,09,9.60
2010,02,17,17,10,9.60
2010,02,17,17,11,9.50
2010,02,17,17,12,9.50
2010,02,17,17,13,9.40
2010,02,17,17,14,9.40
2010,02,17,17,15,9.30
2010,02,17,17,16,9.30
2010,02,17,17,17,9.30
2010,02,17,17,18,9.30
2010,02,17,17,19,9.20
2010,02,17,17,20,9.20
2010,02,17,17,21,9.20
2010,02,17,17,22,9.10
2010,02,17,17,23,9.10
2010,02,17,17,24,9.10
2010,02,17,17,25,9.00
2010,02,17,17,26,8.90
2010,02,17,17,27,8.90
2010,02,17,17,28,8.90
2010,02,17,17,29,8.80
2010,02,17,17,30,8.80
2010,02,17,17,31,8.70
2010,02,17,17,32,8.70
2010,02,17,17,33,8.70
2010,02,17,17,34,8.60
2010,02,17,17,35,8.60
2010,02,17,17,36,8.60
2010,02,17,17,37,8.60
2010,02,17,17,38,8.50
2010,02,17,17,39,8.50
2010,02,17,17,40,8.40
2010,02,17,17,41,8.40
2010,02,17,17,42,8.30
2010,02,17,17,43,8.30
2010,02,17,17,44,8.20
2010,02,17,17,45,8.20
2010,02,17,17,46,8.10
2010,02,17,17,47,8.00
2010,02,17,17,48,7.90
2010,02,17,17,49,7.90
2010,02,17,17,50,7.80
2010,02,17,17,51,7.70
2010,02,17,17,52,7.60
2010,02,17,17,53,7.50
2010,02,17,17,54,7.40
2010,02,17,17,55,7.30